GFSSE_sfc_temp_087.txt.gz
Temp
75 78 82 83 83 83 83 82 82 82 82 82 82 82 83 83 83 83 83 83 83 84 84 83 83 83 83 83 83 83 83 83 83 83 82 82 82 82 82 82 82 81 82
77 80 82 83 83 83 83 82 82 82 82 82 82 83 82 83 83 83 83 83 83 83 84 83 83 83 83 83 83 83 83 83 83 83 83 82 82 82 82 82 82 81 82
78 80 82 82 83 83 83 82 82 82 82 82 82 82 82 82 83 83 83 83 83 83 83 83 83 83 83 83 83 83 83 83 83 83 82 77 78 82 82 82 82 82 82
79 79 80 82 83 83 82 82 82 82 82 82 82 82 82 82 83 83 83 83 83 83 83 83 83 83 83 83 83 83 83 83 83 82 77 79 82 82 82 82 81 81 81
77 77 79 82 83 83 82 82 82 82 82 82 82 82 82 83 83 83 83 83 83 83 83 83 83 83 83 83 83 82 83 83 83 80 74 75 75 82 82 82 81 81 81
76 76 81 83 83 83 82 82 82 82 82 82 83 82 83 83 83 83 83 83 83 83 83 83 83 83 83 82 82 83 82 83 83 77 75 76 75 82 82 82 82 81 81
75 77 80 82 83 83 82 82 82 82 82 83 83 83 83 83 83 83 83 83 83 83 83 83 83 83 83 82 82 82 82 83 79 76 75 74 74 81 82 82 82 81 81
76 77 79 82 82 82 83 82 82 83 83 83 83 83 83 83 83 83 83 83 83 83 83 83 83 83 83 82 82 82 82 83 79 75 75 74 76 81 82 82 81 81 81
77 77 77 79 81 83 83 83 83 83 83 83 83 83 83 83 83 83 83 83 83 82 83 83 83 83 82 82 82 82 82 82 76 75 79 74 78 81 82 81 81 81 81
76 77 75 75 77 78 79 83 83 83 83 83 83 83 83 83 83 83 82 82 83 82 82 83 83 83 82 82 82 82 82 82 76 76 78 75 79 82 82 81 81 81 80
75 74 74 74 74 74 75 80 82 83 83 83 82 83 82 76 77 80 80 82 83 83 83 83 83 82 82 82 82 82 82 75 79 79 78 79 79 82 82 81 81 81 80
73 73 74 74 74 74 79 75 75 77 77 76 76 76 74 74 73 77 79 82 83 83 83 83 83 82 82 75 75 80 75 75 75 76 75 79 80 82 82 81 80 80 81
75 75 75 74 74 74 77 73 74 73 73 73 74 74 73 73 73 73 73 74 74 80 77 79 79 77 75 73 73 72 74 74 73 75 79 80 80 81 82 81 80 80 80
74 75 75 75 74 74 73 74 75 75 73 72 73 73 72 71 70 70 70 72 72 73 74 74 72 73 74 73 73 73 74 74 73 74 75 80 80 81 82 81 81 81 80
74 76 76 76 75 75 74 75 75 75 74 73 73 73 73 72 70 70 71 71 72 72 72 71 72 72 72 73 73 73 73 74 75 74 73 81 81 81 82 82 81 81 81
77 76 77 76 76 76 75 74 74 75 73 73 73 74 74 73 70 70 70 71 71 71 72 71 71 71 71 73 73 74 74 75 75 75 74 75 81 81 81 82 82 81 81
78 78 76 76 76 75 76 75 74 74 74 73 73 71 72 72 70 70 69 70 71 71 72 71 71 71 70 72 72 71 73 74 76 76 74 74 78 81 81 81 81 81 80
80 77 77 80 76 76 75 73 74 75 74 73 72 71 70 70 71 70 69 69 70 70 70 70 70 69 69 70 70 70 73 73 74 76 77 79 79 78 80 81 81 81 81
80 78 77 78 76 76 74 73 73 74 72 72 71 71 71 70 70 68 68 69 70 70 70 70 69 70 68 69 70 70 71 71 73 79 77 76 77 75 76 80 80 80 81
80 79 78 77 77 76 74 72 71 71 71 71 71 71 72 71 71 69 68 68 70 69 69 70 70 69 69 68 70 71 70 71 71 71 73 75 75 75 74 75 75 77 80
81 78 77 76 76 75 72 71 69 71 68 68 69 71 71 72 72 70 68 68 69 69 70 71 69 69 68 68 67 67 68 69 70 70 71 71 72 73 73 72 71 72 73
80 79 77 77 76 77 77 73 70 68 69 69 70 71 73 74 72 71 69 68 68 69 69 69 69 67 67 68 66 64 63 65 67 69 69 70 70 70 71 72 71 71 71
80 78 77 77 76 77 74 71 69 70 69 69 70 70 71 73 72 71 70 69 68 68 68 68 68 68 66 67 67 65 61 61 63 65 67 68 68 68 69 70 71 72 72
80 80 79 77 76 75 73 71 69 68 68 68 69 70 71 73 71 71 70 69 68 68 68 68 68 67 66 65 66 68 66 65 61 60 64 67 70 69 68 68 70 71 71
82 80 78 76 75 74 73 73 71 67 67 68 68 70 70 71 72 72 71 69 68 68 68 68 67 67 66 65 64 65 65 65 65 62 60 63 67 66 66 66 66 68 71
81 79 76 74 74 73 73 71 69 68 68 68 69 69 69 69 69 71 71 69 69 69 68 68 68 68 66 66 65 66 66 64 64 63 62 62 65 65 64 65 66 68 70

GFSSE_sfc_temp_093.txt.gz
Temp
84 87 83 84 84 83 83 83 83 83 83 83 82 83 83 83 83 83 83 83 84 84 83 83 84 84 84 84 84 84 84 83 83 83 83 82 82 82 82 82 83 88 82
88 89 82 83 84 83 83 83 83 83 83 83 83 83 83 83 83 83 83 84 84 84 84 84 84 83 83 84 84 84 83 83 83 83 83 83 83 83 82 82 84 86 82
88 89 88 83 84 84 83 83 83 83 83 83 83 83 83 83 83 83 84 84 84 83 84 84 84 83 83 84 84 84 83 83 83 83 84 89 88 83 83 82 83 82 82
89 90 90 82 83 83 83 83 83 83 83 83 83 83 83 83 83 83 83 82 82 83 84 84 84 84 84 84 84 83 83 83 83 83 89 90 90 83 83 82 82 82 81
88 91 89 83 84 83 82 82 82 83 83 83 83 83 83 83 83 83 83 82 84 83 84 84 84 84 84 83 83 83 83 83 82 84 87 88 90 85 82 82 82 82 82
88 91 86 83 84 83 83 82 83 83 83 83 83 83 83 83 83 83 83 84 83 83 84 84 84 84 83 83 83 83 83 83 82 88 87 86 88 83 82 82 82 82 81
86 89 88 83 83 83 83 83 83 83 83 83 83 83 83 83 83 83 83 83 83 83 84 84 84 84 84 83 83 83 83 83 88 88 86 87 87 82 82 82 82 81 81
86 88 89 83 83 83 83 83 83 83 83 83 83 83 83 83 83 83 83 83 82 83 83 84 84 83 83 83 83 83 83 83 86 87 87 87 81 81 82 82 82 81 81
87 87 86 87 85 83 83 83 83 83 83 83 83 83 83 83 83 83 83 83 83 83 83 83 83 83 83 83 82 82 83 82 88 90 89 89 79 81 82 82 82 82 81
86 86 86 86 87 84 86 83 83 83 83 83 83 83 83 83 83 83 82 82 82 82 83 83 83 83 83 83 82 82 83 82 92 90 90 91 79 81 82 82 82 81 81
83 85 86 86 85 84 85 85 83 83 83 83 84 84 84 89 88 87 85 82 83 82 83 83 83 83 82 82 82 82 83 93 93 91 92 80 80 81 82 82 82 81 81
82 83 86 86 85 85 86 85 85 86 88 88 87 86 88 87 86 87 85 82 82 83 83 83 83 83 83 90 89 84 91 91 91 91 91 80 80 81 82 82 81 81 81
83 84 84 84 84 85 85 84 86 86 86 86 84 85 85 85 84 86 86 86 85 83 85 85 86 88 88 87 88 88 88 89 92 91 89 80 80 81 82 82 81 81 81
82 83 84 84 82 83 83 83 82 85 85 85 86 83 83 84 83 83 83 84 84 82 83 82 87 86 85 84 86 86 87 89 91 91 90 80 80 81 82 82 81 81 81
82 83 83 82 81 82 80 82 80 83 84 84 84 83 84 83 79 83 80 84 84 85 81 81 82 85 84 84 84 84 86 88 88 90 91 81 80 80 82 82 82 81 81
83 83 83 81 81 81 81 79 80 82 83 82 84 84 80 77 80 80 82 84 84 85 85 83 82 82 84 86 84 85 85 87 88 88 91 90 81 81 81 82 82 82 82
84 84 82 81 82 80 80 81 81 82 82 83 83 81 80 78 79 82 83 83 84 83 81 82 82 83 84 85 83 84 86 85 87 87 89 90 91 81 81 81 82 81 81
85 82 82 84 82 81 81 82 83 83 83 83 83 82 79 77 81 81 83 84 85 84 82 82 79 83 83 83 83 84 85 85 85 85 88 89 91 92 85 81 81 81 82
84 82 81 81 81 81 80 82 82 81 83 84 84 81 79 81 81 82 84 85 82 83 82 83 79 79 82 82 82 79 84 84 84 87 86 87 88 89 91 85 80 80 81
84 83 82 82 81 80 82 80 82 83 83 85 84 84 81 80 80 81 83 82 81 83 83 81 80 82 80 80 80 79 82 85 84 84 86 89 89 88 89 87 89 88 81
84 82 81 80 80 81 81 80 80 80 82 83 85 83 81 82 81 80 82 81 80 79 80 80 78 78 80 81 77 81 84 84 84 86 87 87 87 88 87 87 86 86 86
84 82 81 80 80 80 82 82 83 83 85 83 84 82 83 82 81 80 80 80 80 80 78 78 78 77 78 78 79 77 78 82 84 87 86 84 85 87 86 85 84 83 83
84 82 82 80 80 81 82 82 81 81 78 78 81 81 82 82 81 80 80 80 79 79 79 78 78 77 77 78 79 79 76 76 81 83 81 84 82 84 85 83 83 83 82
84 84 82 81 80 81 81 81 79 82 79 81 80 82 81 79 81 81 80 78 78 80 77 78 78 76 76 75 77 80 80 80 78 77 80 81 80 77 77 80 79 80 80
86 84 83 81 80 81 80 82 81 80 79 77 80 79 79 80 81 82 81 80 77 79 78 77 75 75 76 77 78 78 78 80 79 78 78 80 81 81 77 80 83 82 81
89 88 83 80 79 81 80 80 79 78 79 78 77 77 74 76 80 80 80 79 79 80 78 78 77 76 77 78 80 79 77 76 77 77 77 78 77 76 75 81 81 82 81

GFSSE_sfc_temp_096.txt.gz
Temp
95 93 83 84 84 83 84 83 83 83 83 83 83 83 83 83 83 83 83 83 84 84 83 83 84 84 84 84 84 84 84 83 83 83 83 83 83 82 83 83 84 91 83
98 95 83 83 84 84 83 83 83 83 83 83 83 83 83 83 83 83 83 84 84 84 83 84 84 84 84 84 84 84 84 83 83 84 84 83 83 82 82 83 87 87 82
98 96 90 83 84 84 83 83 83 83 83 83 83 83 83 83 84 84 84 84 84 84 84 84 84 84 84 84 83 84 84 83 84 84 85 94 92 83 83 84 83 82 82
99 97 95 82 83 83 83 83 83 83 83 83 83 83 84 84 84 83 83 84 83 84 84 84 84 84 84 84 84 84 84 83 84 84 94 97 95 83 83 83 83 82 82
98 99 94 83 84 83 83 83 83 83 83 83 83 83 83 83 82 83 83 82 83 84 84 84 84 84 84 84 83 83 84 83 83 85 94 94 95 86 83 82 83 82 82
98 100 85 83 84 83 83 83 83 83 83 83 83 83 83 84 83 83 82 83 83 84 84 84 84 84 83 83 83 83 83 82 82 94 93 90 94 82 82 83 83 82 82
98 99 91 83 83 83 83 83 83 83 83 83 83 83 84 84 84 83 84 84 82 84 84 83 84 84 84 83 83 83 83 83 93 93 93 92 90 82 82 82 82 82 81
98 98 93 84 83 83 83 83 83 83 83 83 83 84 83 83 83 83 83 83 82 84 84 84 84 84 84 83 83 83 83 83 91 93 93 93 82 82 83 82 82 82 82
98 97 93 91 86 83 83 83 83 83 84 84 84 83 83 83 84 84 83 83 83 84 84 84 83 83 84 83 82 82 83 84 90 97 96 96 80 82 83 82 82 82 81
96 96 94 92 91 88 85 83 83 83 84 84 84 83 83 84 83 84 83 83 83 83 84 83 83 83 83 82 82 83 83 83 96 97 97 93 80 82 83 82 82 82 81
93 94 95 94 91 87 87 86 84 83 84 84 85 84 85 92 90 87 87 83 83 83 84 84 83 83 83 83 83 83 83 98 100 99 100 80 80 82 82 84 82 81 81
91 93 95 94 93 89 93 88 89 89 88 91 89 89 93 92 93 94 88 83 83 83 84 84 83 83 83 95 92 85 94 98 98 99 98 80 81 82 82 83 82 82 81
92 93 93 93 92 93 92 93 90 89 91 91 87 90 92 92 90 92 92 90 89 85 91 88 88 91 92 96 96 94 95 96 99 98 89 81 81 82 82 82 82 81 81
92 92 93 92 90 91 91 92 93 93 93 88 92 88 89 90 90 90 92 89 85 83 85 89 93 93 93 92 93 93 93 96 98 99 92 82 81 81 82 82 82 82 81
91 91 91 90 88 89 87 91 90 92 93 93 93 89 92 91 89 90 89 90 91 90 84 84 89 91 90 90 91 91 92 94 95 96 98 83 82 81 81 82 82 82 82
92 91 91 89 87 88 87 86 86 89 92 91 93 91 88 91 86 89 89 89 86 89 84 87 85 90 90 91 89 90 90 93 93 94 97 91 82 81 81 82 82 82 82
93 93 90 88 88 86 86 87 87 89 89 88 91 89 88 86 83 83 90 89 89 89 85 86 85 89 90 91 90 90 91 91 93 93 94 96 90 81 81 81 82 82 81
94 90 90 91 88 87 86 87 89 91 90 91 91 91 87 86 85 86 88 91 92 91 86 87 83 88 90 90 89 90 91 91 91 89 93 95 96 95 83 81 81 81 82
92 90 88 88 88 87 86 88 88 87 89 92 93 92 85 86 87 87 88 92 89 91 91 87 83 87 88 89 90 89 90 91 91 94 91 93 93 95 97 82 81 80 82
93 91 88 88 87 86 88 86 90 91 90 92 92 93 89 84 86 87 84 87 89 90 91 90 87 89 88 90 90 86 85 90 92 92 92 94 94 92 95 93 93 90 80
93 89 87 85 86 86 87 87 88 88 89 91 93 91 89 88 87 85 87 85 86 88 88 87 86 83 84 87 81 88 88 89 90 93 94 94 91 91 93 93 91 94 92
92 89 87 86 86 86 89 89 90 89 92 92 92 89 90 89 88 87 84 86 86 82 85 84 83 84 86 88 82 86 83 87 90 92 94 93 93 93 93 92 91 90 90
91 89 87 86 86 86 89 89 88 90 90 89 89 89 88 89 88 87 87 87 85 86 80 84 83 81 83 84 83 85 81 82 87 91 89 92 89 91 93 92 90 89 88
93 92 89 87 86 86 87 88 85 87 87 89 89 91 90 87 87 87 86 86 85 82 82 81 80 80 79 76 78 85 87 85 83 78 89 89 88 85 86 90 90 87 87
95 93 90 84 86 87 87 88 88 86 91 93 86 87 86 86 86 84 87 85 84 85 84 84 82 80 79 76 76 75 80 83 85 84 76 81 87 89 88 88 91 91 88
97 94 91 86 85 86 86 85 86 86 87 89 86 85 81 82 84 82 87 86 85 84 82 81 81 79 80 77 77 75 75 80 84 84 82 83 82 83 90 89 87 81 86

GFSSE_sfc_temp_102.txt.gz
Temp
88 86 83 83 83 84 84 83 83 83 83 82 82 83 83 83 83 83 84 83 83 84 84 84 84 84 84 84 83 83 83 83 83 83 83 83 83 83 83 84 85 84 82
90 87 82 83 83 84 83 83 83 83 83 83 83 82 83 83 83 83 84 84 84 84 84 84 84 84 84 84 84 84 84 83 83 84 83 83 83 83 83 85 84 83 82
90 87 86 82 83 84 83 83 83 83 83 83 83 83 83 83 83 84 84 84 84 84 84 84 85 84 83 83 83 84 84 83 83 84 84 85 83 84 84 84 83 82 82
92 88 87 82 83 83 83 83 83 83 83 83 83 83 83 84 84 84 84 84 83 84 84 84 84 84 83 83 83 84 83 84 84 84 84 88 88 83 83 83 82 82 82
92 92 86 83 83 83 83 83 83 83 83 83 83 83 83 84 84 84 84 83 84 84 84 84 84 84 84 83 83 83 83 84 84 85 84 85 83 84 83 83 82 82 83
94 94 83 83 83 83 83 83 83 83 83 83 84 84 83 84 84 83 83 83 84 84 84 84 84 84 84 84 83 83 83 83 84 86 85 85 82 83 83 84 83 82 82
96 89 86 83 83 83 83 83 83 83 83 84 84 83 83 83 84 83 83 84 84 84 84 84 84 84 83 83 83 83 83 84 84 87 86 83 81 82 83 83 82 82 82
92 90 86 83 83 83 83 83 83 83 83 83 84 84 84 84 83 83 83 83 84 84 84 84 84 83 83 83 83 83 83 84 87 88 85 82 80 82 83 82 82 82 82
94 90 87 85 84 83 83 83 83 83 83 84 83 83 84 83 83 84 83 83 83 84 83 84 84 84 84 83 83 83 83 84 83 86 87 82 81 82 82 82 82 82 82
94 90 87 85 85 84 84 83 83 83 83 84 84 84 83 84 84 84 82 82 84 84 84 84 84 83 83 83 83 83 83 84 84 87 86 82 81 83 83 82 82 82 82
92 91 90 87 84 84 84 84 83 84 84 84 84 84 84 84 84 84 84 83 84 84 84 84 83 83 83 83 83 83 83 84 89 87 85 80 81 83 83 82 82 82 82
94 93 92 88 86 86 89 83 84 85 85 84 82 83 84 84 82 86 85 84 84 84 84 83 83 83 83 84 83 83 82 86 87 87 83 80 81 82 82 82 82 82 82
94 96 93 90 86 87 87 85 86 86 85 84 82 82 80 76 79 83 83 83 81 83 83 83 83 83 84 85 86 84 84 85 86 88 83 81 81 82 82 82 82 81 81
93 95 96 89 86 87 88 87 87 87 84 80 83 81 81 76 79 79 78 83 80 80 80 81 83 83 84 85 85 86 87 87 86 87 81 81 81 82 82 82 82 81 81
91 93 93 90 85 86 84 87 86 86 87 85 83 83 81 84 81 83 77 80 82 82 80 79 82 82 82 84 86 87 86 86 88 84 81 82 81 81 82 82 82 82 81
92 92 93 89 86 85 85 85 84 87 85 85 85 85 84 86 82 84 79 80 82 79 81 83 80 80 83 86 85 86 86 86 88 87 84 82 81 81 81 82 82 82 82
93 93 90 88 88 86 86 87 86 86 86 79 77 78 84 84 84 85 84 83 82 78 78 78 78 80 82 85 82 83 84 85 86 86 86 84 82 81 81 81 81 81 82
93 89 89 92 88 86 85 85 86 87 87 86 87 78 84 85 85 84 81 82 82 76 78 79 78 76 78 81 80 81 81 82 83 83 85 86 84 84 81 81 81 81 81
92 88 87 87 86 85 84 85 85 84 87 87 87 87 83 84 85 82 83 81 73 74 77 76 78 76 76 79 80 79 80 81 82 88 84 84 84 83 84 82 81 81 82
93 89 87 87 85 84 85 84 85 86 86 88 88 88 84 84 84 83 83 80 73 72 76 79 76 78 78 76 84 82 80 81 81 81 83 87 85 84 85 82 80 81 81
93 88 86 84 84 84 83 82 83 83 84 86 88 86 83 84 82 81 83 79 72 71 76 78 76 75 76 79 75 76 77 82 83 82 82 83 84 84 83 81 80 82 80
91 87 85 84 84 83 84 83 84 84 86 86 87 86 84 84 82 80 80 77 78 75 78 79 77 76 77 78 74 73 70 72 80 84 83 83 82 83 83 83 81 80 80
90 87 85 84 83 83 84 84 84 85 85 84 85 86 84 85 83 81 82 79 78 78 78 77 78 76 74 77 78 73 69 68 76 80 81 82 81 82 80 82 82 82 82
92 90 86 84 84 84 84 83 82 83 82 85 85 87 86 86 85 83 81 80 78 79 76 78 78 77 75 73 75 76 77 77 70 68 78 78 80 80 80 80 81 81 81
95 90 87 84 84 84 83 84 84 82 85 87 87 84 84 81 83 85 81 80 78 77 78 78 78 77 75 73 73 73 73 76 76 69 67 72 78 80 82 82 82 79 81
96 92 88 84 82 83 83 84 82 82 84 85 85 86 80 83 82 81 77 74 72 75 77 78 78 78 75 75 75 74 72 73 73 70 69 71 75 74 75 73 72 75 76

GFSSE_sfc_temp_105.txt.gz
Temp
79 81 83 83 84 83 84 83 83 83 83 83 83 83 83 83 83 83 83 83 84 84 84 84 84 84 84 83 84 84 83 83 83 82 83 83 83 83 83 83 83 82 82
81 82 83 83 83 84 83 83 83 83 83 83 83 83 83 83 83 83 83 84 84 84 84 84 84 84 84 83 83 84 84 83 83 83 84 83 83 83 83 84 83 82 82
81 81 83 82 83 83 83 83 83 83 83 83 83 83 83 83 83 83 83 84 83 84 84 84 84 84 84 83 83 83 83 83 83 83 83 80 81 84 84 83 83 82 82
82 80 81 82 83 83 83 83 83 83 83 83 83 83 83 83 83 84 83 83 83 84 84 84 84 83 83 83 83 83 83 83 82 84 81 82 84 83 83 83 82 82 82
81 81 81 83 83 83 83 82 83 83 83 83 83 83 83 84 84 83 83 83 83 83 84 84 84 83 83 83 83 83 83 83 83 83 81 79 77 83 83 83 82 82 82
83 81 82 83 83 83 83 83 83 83 83 83 83 83 83 84 84 83 83 83 84 83 83 84 84 84 83 83 83 83 83 83 84 82 81 81 79 83 83 83 83 82 81
83 80 81 83 83 83 83 83 83 83 83 83 83 83 83 83 83 83 84 84 83 83 84 84 84 84 83 83 83 83 83 83 82 81 81 80 79 82 83 83 82 82 81
80 80 81 82 82 83 83 83 83 83 83 83 83 83 83 83 83 83 83 83 84 83 83 84 83 83 83 83 83 82 83 83 85 82 80 79 80 82 83 82 82 82 82
82 80 80 80 82 83 83 83 83 83 83 83 83 83 83 83 83 83 83 83 84 83 83 83 83 83 83 83 83 83 83 83 80 81 81 78 80 82 82 82 82 82 81
82 80 78 79 79 78 80 83 83 83 83 83 83 83 83 83 83 83 82 82 83 83 83 84 84 83 83 83 83 83 83 83 79 77 81 78 80 82 82 82 82 81 81
81 80 79 79 78 77 77 81 82 83 83 84 83 84 82 77 79 81 82 83 84 84 83 84 83 83 82 83 83 83 83 78 79 82 79 80 81 82 82 82 81 81 81
79 79 80 79 79 78 83 77 76 79 78 77 77 77 77 76 75 81 81 83 84 84 84 83 83 83 83 77 77 82 78 79 78 82 79 80 81 82 82 81 81 81 81
81 81 81 81 80 80 82 78 77 77 76 76 76 76 75 75 75 77 75 77 77 82 78 80 80 79 78 76 77 76 79 81 79 81 81 80 81 82 82 81 81 81 81
83 83 82 82 81 81 79 78 79 79 78 74 76 76 74 73 73 74 74 74 74 74 74 75 75 76 76 78 79 79 79 82 79 79 79 81 81 82 82 82 81 81 81
83 84 83 82 81 82 79 80 80 80 80 78 77 76 75 73 74 73 74 75 76 75 74 74 73 76 76 78 81 80 81 81 83 81 78 82 81 81 82 82 82 81 81
84 83 84 81 82 82 80 78 81 82 80 78 76 78 77 74 76 76 77 75 76 75 74 76 72 75 75 77 81 82 81 81 82 80 80 78 81 81 81 82 82 82 82
86 83 81 81 82 81 81 81 81 81 78 74 73 76 76 76 76 77 76 75 76 75 74 73 74 74 74 77 77 79 80 80 81 81 81 79 79 81 81 81 81 81 81
87 84 82 85 82 81 82 78 80 79 78 77 76 73 73 72 77 75 73 75 75 74 75 74 72 72 72 74 77 75 77 78 79 80 79 80 78 80 80 80 81 81 81
88 85 82 83 81 80 77 77 77 78 78 80 77 78 72 75 78 76 74 73 73 73 71 72 72 72 71 72 74 76 75 76 78 83 80 79 79 79 79 80 80 80 82
87 86 83 82 81 79 78 76 76 76 76 78 79 78 77 79 77 77 75 72 72 71 71 72 72 73 72 72 78 76 77 76 76 79 79 83 79 80 79 78 79 80 81
86 85 83 81 80 80 78 77 77 76 74 75 77 80 80 80 79 76 77 72 71 69 70 72 72 71 71 72 69 70 72 78 79 78 77 80 83 81 78 78 77 77 78
85 84 83 82 79 80 81 80 78 79 75 76 77 77 80 80 79 76 75 74 71 70 69 71 72 70 72 71 68 66 65 68 72 76 75 76 77 79 80 81 79 77 77
84 83 83 82 80 81 81 79 76 76 75 77 77 76 78 80 78 78 77 75 73 72 71 72 72 71 69 71 72 68 63 63 66 72 74 76 77 75 77 78 79 80 78
85 84 84 82 81 81 80 79 78 79 77 80 81 77 78 79 79 77 77 76 75 74 72 72 73 72 70 68 69 72 71 69 65 64 70 72 74 75 75 77 77 77 77
87 84 83 81 81 81 80 80 79 78 80 75 80 76 78 78 79 78 77 76 73 73 72 71 72 72 72 69 69 69 69 69 69 66 64 66 70 74 75 74 79 75 77
88 84 82 80 80 80 80 80 79 79 76 80 78 79 75 80 79 77 77 74 72 72 72 72 73 71 72 72 70 71 69 68 67 66 65 66 67 70 71 71 71 72 73

GFSSE_sfc_temp_108.txt.gz
Temp
78 81 82 83 83 83 83 83 83 83 83 83 83 83 83 83 83 83 83 83 83 84 83 83 83 84 84 84 84 84 84 83 83 83 83 83 82 82 82 83 82 82 82
80 81 82 83 83 83 83 83 83 83 83 83 83 83 83 83 83 83 83 83 84 84 84 84 84 84 83 84 83 83 83 83 83 83 84 83 83 83 83 83 82 81 82
79 81 82 82 83 83 83 83 83 83 83 83 83 83 83 83 83 83 83 83 84 84 84 84 83 84 83 83 83 84 83 83 82 83 83 79 81 83 83 83 82 82 82
80 80 80 82 83 83 83 82 82 83 83 83 83 83 83 83 83 83 84 83 83 84 84 84 84 84 83 83 83 83 83 83 83 83 79 81 83 83 83 82 82 82 82
79 79 80 82 83 83 83 82 83 83 83 83 83 83 83 83 83 83 83 83 84 83 84 84 84 83 83 83 83 83 83 83 84 82 77 76 77 83 83 82 82 81 81
78 78 82 83 83 83 83 83 83 83 83 83 83 83 83 83 83 83 84 83 83 83 83 84 84 83 83 83 82 83 83 82 84 79 78 78 76 83 83 82 83 82 81
78 79 81 83 83 83 83 83 83 83 83 83 83 83 83 83 83 83 83 83 83 83 83 84 84 84 83 83 83 83 82 83 81 78 79 78 78 82 83 82 82 81 81
78 79 80 82 82 83 83 83 83 83 83 83 83 83 83 83 83 83 83 83 83 83 83 83 84 84 83 83 83 82 83 83 82 79 78 77 79 82 83 82 81 81 81
79 79 79 80 81 83 83 83 83 83 83 83 83 83 83 83 83 83 83 83 83 83 83 83 83 83 83 83 82 82 83 83 77 78 80 77 80 82 82 82 81 81 81
79 78 78 78 79 79 80 83 83 83 83 83 83 83 83 83 83 83 81 82 83 83 83 83 83 83 82 82 82 82 83 83 77 77 78 76 80 82 82 82 81 81 81
78 77 77 77 76 76 76 81 82 83 83 83 83 84 82 76 79 81 81 83 83 83 83 83 83 83 82 82 82 82 83 76 77 78 78 79 80 82 82 82 81 81 81
74 75 76 76 76 76 80 77 76 78 77 77 77 77 76 74 74 79 81 83 84 83 83 83 83 83 82 76 75 81 76 77 79 79 78 79 80 82 82 81 81 81 81
76 76 76 76 76 76 78 75 75 74 75 74 75 74 74 74 74 75 74 76 76 82 77 80 79 78 76 75 75 74 76 76 76 78 80 80 80 82 82 81 81 81 81
76 77 77 77 76 77 77 76 75 75 76 74 75 74 73 72 72 73 73 74 74 74 73 74 74 74 74 75 75 76 78 79 76 77 77 81 80 81 82 81 81 81 81
76 78 77 78 77 78 76 76 76 76 76 76 75 74 74 72 72 72 73 74 74 73 72 71 72 73 73 74 76 76 77 80 79 78 76 81 81 81 82 82 81 81 81
79 78 79 78 78 79 77 76 77 77 77 76 74 75 75 74 73 73 73 74 74 74 72 72 70 71 70 72 74 76 78 78 79 78 77 78 81 80 81 81 82 81 81
81 81 79 78 79 78 77 77 77 78 77 74 74 74 74 74 73 74 74 74 74 74 73 71 70 71 70 73 74 74 76 78 78 78 78 79 79 81 80 81 81 81 81
83 81 80 81 79 78 78 78 79 78 76 74 76 75 75 74 74 73 72 73 74 73 73 71 71 70 71 71 72 73 75 76 77 78 78 79 76 79 80 81 80 81 81
85 81 79 80 79 78 78 79 79 77 75 76 75 75 72 74 75 74 73 73 73 72 72 71 70 71 70 70 72 72 73 73 75 80 77 77 77 77 77 79 80 80 82
87 80 80 80 79 79 79 78 78 76 77 76 77 76 73 72 75 74 73 72 71 71 70 70 70 70 70 70 74 72 73 73 73 73 75 78 77 78 78 77 78 80 81
86 80 79 79 79 79 77 77 77 75 74 75 77 77 75 75 76 74 75 72 71 70 70 71 70 70 69 70 69 69 69 73 74 76 75 75 77 79 78 77 76 77 78
84 83 79 79 79 79 80 80 80 80 72 76 76 77 77 77 77 76 74 72 71 69 69 69 70 69 69 70 67 65 64 67 70 74 73 76 76 76 76 78 77 76 76
83 82 80 80 79 80 81 80 73 73 72 72 74 75 77 78 77 77 76 75 71 70 68 68 70 70 68 68 70 67 62 61 64 69 71 73 74 74 76 77 78 76 76
84 84 83 81 79 80 80 78 77 76 76 79 80 80 75 78 78 77 77 75 73 72 70 70 72 71 69 68 68 70 68 67 63 63 67 69 71 73 74 73 75 76 77
86 83 83 81 79 80 79 79 78 76 78 79 79 73 76 75 77 77 77 75 74 72 72 71 71 72 71 69 68 67 69 68 67 65 63 66 68 70 71 72 76 77 78
88 85 82 80 78 80 79 78 78 77 77 74 76 75 74 76 76 75 76 75 74 74 73 73 72 71 71 71 69 68 68 67 67 65 64 65 65 67 69 70 70 71 73

GFSSE_sfc_temp_111.txt.gz
Temp
75 78 82 83 82 83 83 83 83 83 83 82 83 83 83 83 83 83 83 83 84 84 84 84 84 84 84 84 84 84 84 83 83 83 83 82 82 82 82 83 82 81 82
80 80 82 82 83 83 83 83 83 83 83 83 83 83 83 83 83 83 83 84 84 83 83 83 84 84 84 84 84 84 84 83 83 83 83 82 83 82 82 82 82 81 82
78 80 81 82 83 83 83 83 83 83 83 83 83 83 83 83 83 83 84 84 84 83 84 84 84 84 84 83 83 84 83 83 83 83 83 78 79 83 82 82 82 82 82
79 80 80 82 83 83 83 83 83 83 83 83 83 83 82 83 83 84 84 84 84 84 84 84 84 83 83 83 83 83 83 83 83 82 78 80 82 83 83 82 82 82 81
78 78 79 82 83 83 83 82 83 83 83 83 83 83 83 83 84 84 84 84 84 84 84 84 84 83 83 83 83 83 83 83 83 80 75 75 76 83 83 82 82 82 81
77 77 81 83 83 83 83 82 82 83 83 83 83 83 83 83 84 84 83 84 83 84 84 84 83 83 83 83 83 83 83 83 83 77 75 77 75 82 82 82 82 82 81
76 78 81 82 83 83 82 82 82 82 83 83 83 83 83 83 83 83 83 83 83 83 83 84 83 83 83 83 83 82 82 84 79 76 76 75 75 82 82 82 82 82 81
76 78 80 82 82 82 83 83 83 83 83 83 83 83 83 83 83 83 83 83 83 83 83 83 84 83 83 83 82 82 83 83 82 77 77 75 77 81 82 82 82 81 81
78 78 79 80 81 83 83 83 83 83 83 83 83 83 83 83 83 83 83 83 83 83 83 83 83 83 83 83 82 82 83 83 76 76 78 75 79 82 82 82 81 81 81
77 77 77 77 79 79 80 83 83 83 83 83 83 83 83 83 83 83 82 82 82 83 83 83 83 83 82 82 82 82 83 82 74 75 77 75 79 82 82 81 81 81 81
76 75 76 76 76 76 77 80 82 83 83 83 83 83 82 77 78 80 80 82 83 83 83 83 83 82 82 82 82 82 83 75 76 76 75 78 79 82 82 81 81 81 81
72 74 75 75 75 75 79 77 76 78 78 78 78 79 76 74 74 78 80 83 83 83 83 83 83 82 81 74 75 81 75 75 75 76 75 79 80 82 82 81 81 81 80
74 74 75 75 75 75 77 74 75 73 73 73 74 74 74 73 75 76 74 77 76 81 77 79 78 76 75 73 73 73 74 74 74 77 78 79 80 81 82 81 81 81 81
73 75 75 76 74 75 76 74 75 74 73 72 73 73 73 71 72 73 73 73 73 72 72 73 73 73 73 74 73 74 74 76 75 75 75 80 80 81 82 82 81 81 80
73 75 75 75 75 75 72 74 74 74 74 74 73 73 73 72 72 72 72 73 73 72 71 71 72 72 72 73 73 74 75 77 76 75 73 81 80 80 81 82 81 81 81
76 75 75 75 75 76 75 74 73 75 74 73 73 74 73 72 71 71 71 72 72 73 71 71 71 71 71 71 72 74 75 76 76 76 75 77 81 80 81 82 82 81 81
77 77 75 75 76 75 75 74 74 75 75 73 73 73 73 73 71 72 72 72 73 73 72 70 69 69 69 70 70 73 74 75 76 76 75 74 78 80 80 81 81 81 81
78 77 77 78 76 75 75 75 76 75 75 74 73 73 73 73 72 71 71 71 71 71 72 71 69 68 68 68 69 71 72 73 75 75 75 77 78 78 80 81 81 80 80
79 78 76 77 76 76 76 75 75 75 74 75 76 75 73 74 74 72 71 71 72 72 71 71 69 69 68 68 70 70 70 71 73 78 75 76 76 77 76 79 80 80 81
81 79 78 77 77 77 76 75 75 73 73 74 75 76 75 74 74 74 72 72 72 71 71 69 69 69 69 69 72 71 71 71 71 71 73 76 75 77 77 76 77 79 81
81 79 77 77 77 76 75 74 74 73 73 73 75 75 74 73 73 73 72 71 71 71 71 70 69 69 69 69 67 67 69 71 71 71 72 73 73 75 74 75 75 76 78
81 79 77 77 77 77 77 77 77 76 74 75 74 75 75 74 73 73 72 71 71 70 69 69 69 68 68 69 66 65 64 66 69 72 71 73 73 75 75 76 75 75 75
83 76 77 77 78 77 78 78 73 72 70 70 72 73 74 75 74 75 74 73 71 70 70 69 69 68 67 67 69 66 61 61 63 68 70 72 73 71 73 75 76 76 76
83 84 79 78 78 78 78 78 76 75 74 77 76 74 73 75 75 75 75 74 72 70 69 69 69 69 68 66 66 69 67 66 62 62 66 68 69 71 71 72 74 75 75
83 82 80 78 78 78 78 79 78 77 78 78 78 73 73 72 75 75 75 74 73 71 71 70 68 69 69 68 66 66 67 66 66 64 63 65 67 69 69 71 74 74 75
75 83 80 76 77 78 78 79 77 77 77 74 73 71 71 72 74 73 74 74 73 73 72 71 71 70 71 70 68 67 67 66 66 65 65 65 64 67 68 69 69 71 72